Location: Faye
(46.9573°N, 0.3407°E)
Time: 07:21:21
(UTC+00:00)

Daily predictions for brighter satellites

Satellite Brightness Start Highest point End
(mag) Time Altitude Azimuth Time Altitude Azimuth Time Altitude Azimuth
Cosmos 1607 4.4 20:15:12 10° SW 20:21:25 71° NW 20:27:36 10° NE
Gbstr 26 Del rocket 4.3 20:17:22 10° W 20:21:51 50° N 20:27:19 10° ENE
NOSS 3-4 (A) 4.1 20:17:58 10° NW 20:24:38 67° NE 20:32:32 10° SE
NOSS 3-4 (C) 4.1 20:18:00 10° NW 20:24:41 66° NE 20:32:32 10° SE
Terra 2.0 20:20:19 10° SSE 20:24:57 61° ENE 20:29:37 10° N
Cosmos 1943 Rocket 4.3 20:23:10 10° WSW 20:28:06 32° NW 20:33:06 10° NNE
Cosmos 1634 Rocket 4.0 20:22:18 10° N 20:28:30 84° E 20:34:40 10° S
Cosmos 1606 3.5 20:26:19 10° NNW 20:29:12 38° W 20:32:05 10° SSW
Spot 2 Rocket 3.9 20:28:00 10° SE 20:32:54 50° ENE 20:37:48 10° N
IRS-1A Rocket 4.3 20:27:29 10° SSE 20:32:56 70° ENE 20:38:29 10° N
Cosmos 1486 Rocket 4.0 20:30:25 10° SSW 20:35:41 81° ESE 20:41:01 10° NNE
USA 186 3.8 20:34:11 10° SSW 20:36:21 21° W 20:38:33 10° NW
NOSS 5 (C) 4.5 20:33:11 10° NW 20:36:28 66° SW 20:39:44 10° SSE
Cosmos 1818 4.0 20:32:10 10° NNW 20:37:33 54° NE 20:42:51 10° SE
SPOT 5 4.0 20:32:31 10° S 20:37:37 51° W 20:42:48 10° NNW
Cosmos 1674 Rocket 4.0 20:34:06 10° SSE 20:38:15 42° E 20:42:27 10° NNE
ERS-1 Rocket 3.1 20:39:12 10° S 20:44:12 79° WSW 20:49:13 10° NNW
USA 245 3.5 20:41:00 10° SSE 20:45:07 53° ENE 20:48:28 10° N
Cosmos 2279 Rocket 4.0 20:39:03 10° N 20:45:19 78° E 20:51:34 10° SSE
Cosmos 2297 3.7 20:42:23 10° SSW 20:47:58 69° ESE 20:53:38 10° NNE
Meteor 1-21 Rocket 4.3 20:42:33 10° S 20:48:07 63° E 20:53:39 10° NNE
Okean-O 2.8 20:47:04 10° S 20:51:25 75° WSW 20:55:50 10° NNW
Cosmos 1812 3.9 20:49:23 10° NNE 20:51:50 20° ENE 20:53:43 13° ESE
Cosmos 1656 Rocket 4.1 20:48:38 10° SW 20:54:09 67° WNW 20:59:38 10° NNE
Cosmos 1378 Rocket 3.5 20:49:55 10° S 20:54:12 84° E 20:58:30 10° N
COSMOS 2406 4.5 20:49:08 10° NW 20:54:22 37° WSW 20:59:34 10° S
BlueWalker 3 3.7 20:53:56 10° WNW 20:57:12 30° N 21:00:29 10° ENE
Okean O Rocket 2.5 20:53:58 10° S 20:58:11 48° W 21:02:27 10° NNW
Cosmos 990 Rocket 4.4 20:53:41 10° S 20:58:31 43° ESE 21:03:25 10° NE
Cosmos 1025 Rocket 3.5 20:54:40 10° SSE 20:58:46 43° E 21:02:55 10° NNE
In-Cosmos 22 Rocket 4.4 21:05:19 10° SSW 21:11:09 83° WNW 21:16:55 10° N
Cosmos 1503 Rocket 4.3 21:12:47 10° SSW 21:17:56 69° WNW 21:23:05 10° NNE
Cosmos 2369 Rocket 2.5 21:17:33 10° SW 21:23:14 70° WNW 21:28:55 10° NNE
Cosmos 1354 Rocket 4.1 21:22:12 10° SSW 21:27:25 80° WNW 21:32:40 10° NNE
ASTEX 1 3.3 21:22:43 10° N 21:27:37 87° E 21:32:11 12° S
SAR-Lupe-2 3.7 21:29:36 20° S 21:32:00 73° WSW 21:35:37 10° NNW
Cosmos 2297 Rocket 4.0 21:30:22 10° N 21:34:38 21° NE 21:38:53 10° E
ISS -2.7 21:31:31 10° WNW 21:34:44 42° NNE 21:37:42 12° E
DELTA 2 R/B (1) 4.2 21:30:10 10° SW 21:35:05 33° SSE 21:38:43 16° ESE
Ariane Rocket 3.0 21:32:58 17° S 21:36:50 81° WSW 21:41:55 10° NNW
COBE Rocket 3.9 21:32:59 10° NNE 21:37:34 56° E 21:40:36 20° S
Okean 2 Rocket 3.9 21:35:04 10° NNW 21:39:17 47° W 21:42:59 13° SSW
Tiangong -0.1 21:37:05 10° SW 21:38:13 16° SSW 21:38:13 16° SSW
Cosmos 2098 Rocket 4.0 21:37:02 10° NNE 21:39:44 23° ENE 21:40:46 20° ESE
CZ-4C R/B 1.6 21:40:49 10° SSW 21:45:03 79° SE 21:50:28 10° NE
Cosmos 44 3.0 21:45:49 10° SW 21:50:07 85° NW 21:54:33 10° NE
Lacrosse 5 rocket 3.8 21:47:25 10° NW 21:50:16 19° N 21:53:08 10° NE
Cosmos 1515 2.5 21:48:27 10° N 21:51:03 72° E 21:51:23 60° SE
Okean 1 Rocket 4.0 21:49:05 10° NNW 21:53:14 44° W 21:56:28 15° SSW
Cosmos 1975 Rocket 3.2 21:53:28 29° SSE 21:55:26 54° E 21:59:39 10° NNE
Nadezhda 4 Rocket 4.3 21:51:43 10° SSW 21:58:00 68° W 22:04:20 10° N
Cosmos 2228 3.5 21:57:33 10° N 22:01:38 45° ENE 22:03:10 31° SE
Terra 4.2 21:59:50 10° SW 22:02:54 17° W 22:05:57 10° NW
Cosmos 1455 Rocket 3.1 22:00:34 10° NNW 22:04:51 71° W 22:07:03 28° S
Cosmos 2285 Rocket 4.1 22:00:33 10° SSW 22:06:56 84° WNW 22:13:25 10° NNE
Cosmos 2227 Rocket 4.3 22:03:18 10° N 22:07:16 19° NE 22:11:14 10° E
Cosmos 1867 3.5 22:02:46 13° SSW 22:07:38 64° ESE 22:13:02 10° NE
Gbstr 26 Del rocket 4.0 22:03:51 10° WNW 22:08:57 65° NNE 22:15:16 10° E
BREEZE M DEB (TANK) 2.2 22:05:29 10° WSW 22:09:48 57° SSE 22:10:09 51° ESE
BREEZE-M DEB (TANK) 3.6 22:05:19 10° W 22:15:38 73° NNW 22:18:56 10° ENE
Cosmos 2026 Rocket 3.9 22:12:17 20° S 22:16:41 85° W 22:22:47 10° N
Cosmos 1898 Rocket 3.4 22:16:18 22° SSW 22:19:39 81° ESE 22:24:56 10° NNE
Iridium 82 4.2 22:16:47 10° N 22:20:09 83° W 22:20:46 56° S
CZ-2C R/B 4.4 22:18:07 10° NNE 22:22:33 38° E 22:23:40 33° SE
Cosmos 1812 4.3 22:22:37 10° NW 22:25:02 20° W 22:26:19 16° WSW
USA 81 4.0 22:25:23 28° S 22:28:17 82° W 22:33:35 10° N
ARIANE 5 R/B 3.1 22:30:39 34° ESE 22:32:07 48° ENE 22:36:24 10° N
Cosmos 1553 Rocket 4.0 22:26:32 10° N 22:32:49 74° E 22:35:55 32° SSE
BlueWalker 3 2.4 22:31:49 10° NW 22:35:25 54° NNE 22:36:56 30° E
Cosmos 1092 Rocket 4.3 22:35:06 19° SSW 22:39:44 65° W 22:46:02 10° N
CZ-4C R/B 3.0 22:42:35 10° NNE 22:46:16 69° ESE 22:46:38 63° SE
DELTA 2 DEB (DPAF) 3.9 22:42:22 10° N 22:46:17 70° WNW 22:47:30 41° SW
ATLAS 2AS CENTAUR R/B 4.3 22:42:21 10° NNW 22:48:14 30° NNE 22:54:03 10° E
Cosmos 1536 Rocket 3.8 22:48:20 46° SE 22:49:07 53° E 22:53:25 10° NNE
Cosmos 1656 3.6 22:47:10 34° S 22:49:37 72° ESE 22:55:09 10° NNE
RESURS DK-1 2.2 22:47:49 10° NNW 22:51:50 81° ENE 22:52:29 60° SE
S3M 4.4 22:47:31 10° N 22:53:43 54° ENE 22:56:23 32° SE
Cosmos 2263 Rocket 4.2 22:50:37 10° N 22:54:55 22° NE 22:59:11 10° E
Cosmos 1544 Rocket 3.7 22:51:01 10° NNW 22:55:23 67° W 22:56:31 46° SSW
Cosmos 1606 Rocket 4.3 22:53:45 10° N 22:57:54 41° ENE 22:58:50 36° ESE
Cosmos 2058 2.9 23:01:15 54° ESE 23:01:29 55° E 23:05:21 10° NNE
Cosmos 1400 Rocket 2.6 22:58:51 10° NNW 23:02:40 72° W 23:03:02 65° SW
Meteor 2-20 Rocket 4.3 22:56:43 10° N 23:02:46 83° W 23:05:05 39° S
USA 215 3.7 22:58:35 10° ESE 23:04:59 61° NNE 23:11:25 10° NW
Cosmos 1782 2.6 23:05:39 10° N 23:09:19 65° E 23:09:26 64° E
Cosmos 2112 Rocket 4.0 23:05:29 10° NNW 23:10:46 76° WSW 23:12:22 46° S
ISS -2.7 23:08:15 10° WNW 23:10:32 37° W 23:10:32 37° W
Cosmos 2098 Rocket 4.4 23:15:09 10° NW 23:17:45 21° W 23:18:12 21° WSW
Cosmos 1937 Rocket 4.3 23:14:20 19° SW 23:17:46 46° WNW 23:22:42 10° NNE
Cosmos 1862 3.8 23:18:17 42° E 23:18:17 42° E 23:21:31 10° NNE
Cosmos 2297 Rocket 2.1 23:13:42 10° NNW 23:19:22 82° WSW 23:21:13 45° SSE
DELTA 2 R/B (1) 4.3 23:15:42 10° WSW 23:19:25 33° SW 23:19:25 33° SW
Cosmos 1726 Rocket 4.1 23:16:39 10° N 23:21:11 54° ENE 23:22:11 44° ESE
Cosmos 1680 Rocket 3.9 23:16:12 10° NNW 23:21:19 52° WSW 23:22:44 40° SSW
ALOS 2 2.5 23:22:00 60° SSE 23:22:47 87° ENE 23:27:12 10° NNW
Cosmos 2058 Rocket 4.4 23:18:56 10° N 23:22:50 29° ENE 23:23:59 26° E
PSLV R/B 3.9 23:19:13 10° NNE 23:23:50 55° E 23:24:32 50° SE
Lacrosse 5 rocket 2.7 23:24:52 10° NW 23:28:32 35° NNE 23:31:05 17° E
Cosmos 1980 Rocket 3.4 23:28:23 25° ESE 23:29:03 26° ESE 23:33:35 10° NE
MetOp-A 4.0 23:33:09 38° WSW 23:33:17 38° W 23:36:51 10° NNW
Cosmos 1697 Rocket 2.8 23:32:03 46° SSE 23:33:26 59° ESE 23:39:00 10° NNE
CZ-4C R/B 4.2 23:30:03 10° W 23:34:04 25° NNW 23:38:59 10° NNE
Cosmos 1356 Rocket 3.8 23:30:54 10° N 23:34:50 48° ENE 23:35:17 45° E
Cosmos 2360 4.3 23:33:07 34° SW 23:35:43 76° WNW 23:41:27 10° NNE
Cosmos 1892 Rocket 3.6 23:39:40 55° ESE 23:40:01 58° E 23:44:16 10° NNE
CZ-2C R/B 4.4 23:36:52 14° ESE 23:40:25 25° ENE 23:44:54 10° N
Spot 1 4.2 23:36:41 10° NNE 23:41:25 64° ESE 23:42:05 56° SE
PSLV R/B 4.4 23:40:00 10° NNE 23:43:44 43° E 23:43:44 43° E
Cosmos 1441 Rocket 3.8 23:44:49 42° ENE 23:44:49 42° ENE 23:47:38 10° NNE
Meteor 2-3 Rocket 4.0 23:46:45 43° SSE 23:48:25 59° E 23:54:05 10° NNE
GEOS 3 Rocket 3.5 23:44:46 10° NE 23:50:04 78° SE 23:51:47 44° SSW
Cosmos 2227 Rocket 2.1 23:46:28 10° NNW 23:52:11 85° ENE 23:54:06 44° SSE
Cosmos 494 Rocket 4.4 23:48:39 10° NNW 23:53:37 46° WSW 23:54:34 41° SW
Cosmos 1125 Rocket 3.8 23:52:54 45° SE 23:53:50 50° ESE 23:58:54 10° NNE
